COSMOS 2534 (758)

Last updated on Sun Nov 16 2025 00:04:25 GMT+0000 (Coordinated Universal Time)

1 44299U 19030A 25319.27756994 .00000023 00000+0 00000+0 0 9993 2 44299 64.3646 199.8183 0009641 282.5584 272.0425 2.13102149 50361
UTC large
Height (km)
Speed (km/s)
/
Latitude / Longitude
Inclination (degrees)
Orbital Period (minutes)
Azimuth
Elevation
Range (km)
Doppler Factor

Next 0 passes for location: London (51.5072 / 0.1276)

Sorry there are no passes over London.